Coimbatore International Airport

Jump to: basic info | weather | frequencies | runways | comments

Related pages: nearby airports | nearby navaids | notams | map

Basic information (top)

Codes: CJB VOCB
Location: lon 11.030000, lat 77.043404, elev 1,324 ft / 404 m msl
Status: medium_airport
Scheduled airline service: yes
Links: Wikipedia Mobile

Weather (top)

Current conditions (rec'd 2014/12/18 18:00Z):

VOCB 181800Z 00000KT 2500 BR SCT015 SCT080 23/20 Q1016 NOSIG

Airport forecast (rec'd 2014/12/18 12:00Z):

TAF VOCB 180900Z 1812/1918 06010KT 6000 SCT012 BKN080 
      BECMG 1815/1817 VRB02KT 4000 BR 
      TEMPO 1822/1903 2000 BR 
      BECMG 1904/1905 06010KT 5000 HZ 
      BECMG 1916/1917 VRB02KT 3000 HZ

Frequencies (top)

Verify before use: may be inaccurate or out of date.

APP: 120.05 MHz (AFTER 0430 HRS UTC)
ATIS: 128.05 MHz ()
TWR: 118.15 MHz ()

Runways (top)

05/23: 8,480 x 150 ft (2,585 x 46 m) — paved — lighted

Latest comments (top)

re: Flying Club: Dude, i been looking for someone ... [read]

more international flights: is there any near future plan to have ... [read]

Flying Club: Anyone interested in starting a flying ... [read]

More... (top)

See also NOTAMs and nearby airports and navaids, or visit the Coimbatore International Airport page at the main OurAirports website..